Regional Weather Roundup
Issued by NWS Upton, NY

Current Version | Previous Version | Text Only | Print | Product List | Glossary On
Versions: 1 2 3 4 5 6 7 8 9 10 11 12 13 14 15 16 17 18 19 20 21 22 23 24 25 26 27 28 29 30 31 32 33 34 35 36 37 38 39 40 41 42 43 44 45 46 47 48 49 50
458 ASUS41 KOKX 062204 RWROKX REGIONAL WEATHER ROUNDUP NATIONAL WEATHER SERVICE NEW YORK NY 500 PM EST SAT FEB 06 2016 NOTE: "FAIR" INDICATES FEW OR NO CLOUDS BELOW 12,000 FEET WITH NO SIGNIFICANT WEATHER AND/OR OBSTRUCTIONS TO VISIBILITY. NYZ071-072-176-178-NJZ106-104-062300- NEW YORK CITY METRO AREA CITY SKY/WX TMP DP RH WIND PRES REMARKS CENTRAL PARK PTCLDY 38 19 46 MISG 30.30F LAGUARDIA APRT MOCLDY 40 19 43 SW8 30.29F WCI 34 KENNEDY INTL MOCLDY 37 22 54 SW9 30.31F WCI 30 NEWARK/LIBERTY MOCLDY 39 22 50 S12 30.30S WCI 32 BRNX BOT. GARD N/A 39 21 48 SW7 30.29F WCI 34 TETERBORO CLOUDY 39 20 46 S12 30.28S WCI 32 $$ NYZ177-179-078>081-062300- LONG ISLAND NEW YORK CITY SKY/WX TMP DP RH WIND PRES REMARKS FARMINGDALE CLOUDY 38 25 59 SW8 30.30F WCI 32 ISLIP CLOUDY 36 25 64 SW9 30.28F WCI 29 SHIRLEY PTCLDY 36 25 64 S7 30.31F WCI 30 RIVERHEAD N/A 36 25 64 SW3 30.33S WESTHAMPTON PTCLDY 35 24 64 SW8 30.32F WCI 29 EAST HAMPTON FAIR 34 25 70 SW6 30.31S WCI 29 MONTAUK POINT N/A 36 27 69 SW8 30.32S WCI 30 $$ NYZ052-065-067-062300- HUDSON VALLEY CITY SKY/WX TMP DP RH WIND PRES REMARKS WHITE PLAINS PTCLDY 36 20 52 S6 30.26S WCI 31 NEWBURGH PTCLDY 39 19 45 SW8 30.23S WCI 34 MONTGOMERY CLEAR 39 19 44 SW14G21 30.21S WCI 31 POUGHKEEPSIE CLEAR 41 16 36 S9G20 30.23S ALBANY CLOUDY 40 18 41 CALM 30.19R $$ NJZ001-105-106-008-010-013-015-019>022-104-062300- NEW JERSEY CITY SKY/WX TMP DP RH WIND PRES REMARKS NEWARK/LIBERTY MOCLDY 39 22 50 S12 30.30S WCI 32 TETERBORO CLOUDY 39 20 46 S12 30.28S WCI 32 CALDWELL PTCLDY 39 16 39 SW5 30.28F MORRISTOWN CLEAR 39 19 45 SW9 30.28F WCI 33 SOMERVILLE CLEAR 39 19 44 S5 30.27S SUSSEX CLEAR 38 18 44 S5 30.24S WCI 34 ANDOVER N/A 36 18 48 SW9 30.25S WCI 29 TRENTON PTCLDY 39 19 44 SW7 30.29S WCI 34 MILLVILLE CLEAR 39 24 55 CALM 30.32S ATLANTIC CITY PTCLDY 40 20 44 SW7 30.32S WRIGHTSTOWN PTCLDY 38 25 58 SW6 30.28S WCI 34 TOMS RIVER PTCLDY 37 21 52 SW8 30.32S WCI 31 BELMAR MOCLDY 39 18 41 SW6 30.30S WCI 35 $$ PAZ047>061-062-071-062300- EASTERN PENNSYLVANIA CITY SKY/WX TMP DP RH WIND PRES REMARKS PHILADELPHIA MOCLDY 41 21 44 SW8 30.31F ALLENTOWN CLEAR 40 19 43 S12 30.27S WCI 33 SCRANTON CLEAR 39 17 41 SW12 30.19S WCI 32 $$ CTZ002-004>006-009-010-012-RIZ004-006-007-MAZ004-011-015-062300- SOUTHERN NEW ENGLAND IN CT CITY SKY/WX TMP DP RH WIND PRES REMARKS BRADLEY INTL PTCLDY 34 22 61 S15 30.24S WCI 24 HARTFORD CLEAR 36 22 56 S9 30.27S WCI 29 DANBURY CLEAR 36 18 48 S8 30.26S WCI 30 WTRBRY/OXFORD MOCLDY 34 16 47 SW9G16 30.26S WCI 26 BRIDGEPORT CLOUDY 37 26 64 SW14 30.29F WCI 28 MERIDEN CLEAR 35 23 61 S7 30.28S WCI 29 NEW HAVEN MOCLDY 36 24 62 SW8 30.29F WCI 30 CHESTER FAIR 34 27 75 SW7 30.28S WCI 28 GROTON CLOUDY 35 27 72 SW14 30.30S WCI 26 WILLIMANTIC CLOUDY 34 23 64 S7 30.28S WCI 28 IN RI CITY SKY/WX TMP DP RH WIND PRES REMARKS PROVIDENCE CLOUDY 33 23 66 SW10 30.30S WCI 25 BLOCK ISLAND MOCLDY 36 27 69 W12G18 30.30F WCI 27 WESTERLY PTCLDY 35 25 66 SW7 30.31S WCI 29 IN MA CITY SKY/WX TMP DP RH WIND PRES REMARKS BOSTON MOCLDY 34 24 67 S12 30.27S WCI 25 WORCESTER CLEAR 30 21 69 S9 30.21R WCI 22 WESTFIELD CLEAR 34 22 61 S12 30.22S WCI 25 PROVINCETOWN PTCLDY 33 25 72 SW18 30.30F WCI 22 NANTUCKET MOCLDY 36 25 64 SW13 30.32F WCI 27 $$ ANZ330-335-338-340-345-350-353-355-062300- COASTAL MARINE OBSERVATIONS STATION/POSITION TIME SKY/WX TEMP WIND PRES VSBY WAVE AIR SEA DIR/SP/G HT/PER (UTC) (F) (DEG/KT/KT) (MB) (MI) (FT/S) NY HARB ENTRANCE 2050 39 44 210/ 14/ 17 1026.0 2/11 4S FIRE IS NOT AVBL 20S FIRE ISLAND 2050 38 45 220/ 14/ 17 1026.6 2/10 GREAT SOUTH BAY NOT AVBL 23SW MTP 2150 39 47 240/ 16/ 19 1026.1 3/ 9 HUDSON CANYON 2050 41 51 1027.4 3/10 KINGS POINT 2100 38 40 240/ 11/ 14 1025.4 EXECUTION ROCKS NOT AVBL CENTRAL LI SOUND 2115 37 210/ 14/ 16 N/A 1/ 3 EASTERN LI SOUND 2100 37 42 220/ 14/ 19 N/A ROBBINS REEF 2100 38 200/ 12/ 13 1025.3 $$ >>>>>>>>>>>>>>>>>>>>>>>>>>>> KEY <<<<<<<<<<<<<<<<<<<<<<<<<<< > < > SKY/WX - SKY CONDITION/PRESENT WEATHER < > TMP - TEMPERATURE IN FAHRENHEIT < > DP - DEWPOINT IN FAHRENHEIT < > RH - RELATIVE HUMIDITY IN PERCENT < > WIND - DIRECTION AND SPEED IN MPH < > PRES - MEAN SEA LEVEL PRESSURE IN INCHES OF HG < > WCI - WIND CHILL INDEX < > VSB - VISIBILITY IN MILES < > HX - HEAT INDEX < > TC - TEMPERATURE IN CELSIUS < > VRB - VARIABLE WIND DIRECTION < > < >>>>>>>>>>>>>>>>>>>>>>>>>>>> KEY <<<<<<<<<<<<<<<<<<<<<<<<<<<

USA.gov is the U.S. government's official web portal to all federal, state and local government web resources and services.